vendredi 30 novembre 2018

Vous pouvez trouver Le classement original sur : www.otopservices.be  
 
LA CORRIDA DE CHASTRE
DISTANCE : 6.00 km
vendredi 30 novembre 2018
 
Place dos NOM Catégorie Pl/cat temps temps/km Vitesse
01:00:00              
1 226 JÉRÔME DENIS SENIOR H 1 00:20:38 03:26 17.45
2 315 GERALD CROES SENIOR H 2 00:20:51 03:29 17.27
3 154 LAURENT RECOUR VETERAN 1 1 00:21:28 03:35 16.77
4 284 BRIEUC CLERIN ESPOIR H 1 00:22:11 03:42 16.23
5 378 JAWAD AGHYAL SENIOR H 3 00:22:47 03:48 15.80
6 219 PIERRE DESPONTIN ESPOIR H 2 00:22:59 03:50 15.66
7 353 BRUNO VAN CAELENBERG VETERAN 1 2 00:23:29 03:55 15.33
8 377 ROBIN HARBRUGE SENIOR H 4 00:24:20 04:03 14.79
9 244 THIBAUT PAGE SENIOR H 5 00:24:28 04:05 14.71
10 347 BASTIAN DESQUEPER ESPOIR H 3 00:24:41 04:07 14.58
11 295 CHRISTOPHE CANION VÉTÉRAN 2 1 00:24:47 04:08 14.53
12 1026 MATHIS COLLIGNON ESPOIR H 4 00:24:49 04:08 14.51
13 260 JULIEN BALLIEUX SENIOR H 6 00:25:44 04:17 13.99
14 266 NICOLAS CHORINE SENIOR H 7 00:25:45 04:17 13.98
15 83 VINCENT DELAUNOY VÉTÉRAN 2 2 00:25:57 04:19 13.87
16 1025 JULES ISERENTANT ESPOIR H 5 00:25:59 04:20 13.86
17 330 JONATHAN QUIQUE SENIOR H 8 00:26:13 04:22 13.73
18 207 DELPHINE PERMENTIER AINÉE 1 1 00:26:49 04:28 13.42
19 231 RENÉ DEVOS VÉTÉRAN 2 3 00:26:57 04:30 13.36
20 297 CATHERINE HOOFD SENIOR D 1 00:27:08 04:31 13.27
21 49 JUAN VOET ESPOIR H 6 00:27:17 04:33 13.19
22 46 ALEX VOET ESPOIR H 7 00:27:31 04:35 13.08
23 265 MICHAEL LINUSSIO SENIOR H 9 00:27:45 04:38 12.97
24 262 THOMAS BALLIEUX SENIOR H 10 00:27:52 04:39 12.92
25 2 LOUIS BERNY SENIOR H 11 00:27:52 04:39 12.92
26 247 ELODIE VANHAUWAERT SENIOR D 2 00:27:54 04:39 12.90
27 298 BENJAMIN VERSTRAELEN ESPOIR H 8 00:28:17 04:43 12.73
28 1024 MATTIS LAGNEAU ESPOIR H 9 00:28:47 04:48 12.51
29 268 ROMAIN LINUSSIO SENIOR H 12 00:29:20 04:53 12.27
30 54 NICOLAS DEWITTE VETERAN 1 3 00:29:22 04:54 12.26
31 327 SIMON CESAR ESPOIR H 10 00:29:24 04:54 12.24
32 235 FREDERIC DECOURTIT VETERAN 1 4 00:29:24 04:54 12.24
33 285 ALEXANDRE PEPIN ESPOIR H 11 00:29:26 04:54 12.23
34 79 JEAN-CLAUDE DALCQ VÉTÉRAN 2 4 00:29:27 04:55 12.22
35 1019 ADRIEN DEVILLE ESPOIR H 12 00:29:42 04:57 12.12
36 123 BENOIT EVRARD VÉTÉRAN 2 5 00:29:51 04:59 12.06
37 379 JAMEL JELLOULI VETERAN 1 5 00:30:03 05:00 11.98
38 326 JEROME POLS SENIOR H 13 00:30:06 05:01 11.96
39 248 NICO BARRAS SENIOR H 14 00:30:12 05:02 11.92
40 257 CHRISTOPHE LATTEUR VETERAN 1 6 00:30:13 05:02 11.91
41 369 YASSER JELLOULI ESPOIR H 13 00:30:35 05:06 11.77
42 328 STEPHANIE LEMMENS AINÉE 1 2 00:30:41 05:07 11.73
43 255 EMMANUEL HENNEQUIN VETERAN 1 7 00:30:52 05:09 11.66
44 67 OLIVIER PEETROONS VETERAN 1 8 00:30:55 05:09 11.64
45 70 LAURENCE DUBOIS AINÉE 1 3 00:31:39 05:16 11.37
46 332 SYLVIE HUBLAU AINÉE 1 4 00:31:59 05:20 11.26
47 3 THOMAS SLEGERS SENIOR H 15 00:32:10 05:22 11.19
48 199 ANTOINE DELATTE ESPOIR H 14 00:32:11 05:22 11.19
49 117 GUILLAUME HARVIE ESPOIR H 15 00:32:13 05:22 11.17
50 213 HARMONIE VANIEKAUT ESPOIR D 1 00:32:18 05:23 11.15
51 302 RODOLPHE MOUREAUX VETERAN 1 9 00:32:25 05:24 11.11
52 299 MICHAEL VERSTRAELEN VETERAN 1 10 00:32:28 05:25 11.09
53 146 SIBYLLE CHAMPAGNE AINÉE 1 5 00:32:29 05:25 11.08
54 183 NATHALIE FILLEE AINÉE 2 1 00:32:30 05:25 11.08
55 138 VICTOR FUMBA ESPOIR H 16 00:32:39 05:27 11.03
56 141 MARTIN THIRY ESPOIR H 17 00:32:39 05:27 11.03
57 320 GREGORY POURBAIX SENIOR H 16 00:33:30 05:35 10.75
58 356 CHARLINE FRANKART SENIOR D 3 00:33:31 05:35 10.74
59 5 CHRISTINE VERPOORTEN AINÉE 1 6 00:33:59 05:40 10.59
60 1023 THIBAULT PETRONIN ESPOIR H 18 00:34:02 05:40 10.58
61 1022 MATTÉO BOUVIER ESPOIR H 19 00:34:03 05:41 10.57
62 121 INGE BEERNAERT SENIOR D 4 00:35:10 05:52 10.24
63 401 LOUIS CORNET XXX   00:35:17 05:53 10.20
64 105 CHARLOTTE DU BUS SENIOR D 5 00:35:32 05:55 10.13
65 104 CHARLOTTE LAMBERT SENIOR D 6 00:35:33 05:55 10.13
66 68 DAVY MELON VETERAN 1 11 00:35:38 05:56 10.10
67 132 BARBARA VINKEN AINÉE 1 7 00:35:40 05:57 10.09
68 309 ELEONORE VANHAMME SENIOR D 7 00:36:22 06:04 9.90
69 236 CLARA CHARLIER ESPOIR D 2 00:36:23 06:04 9.89
70 282 NAËLA ATTIA ESPOIR D 3 00:36:25 06:04 9.89
71 343 MORGANE DEWEVRE SENIOR D 8 00:36:55 06:09 9.75
72 346 VALERIE KLICH AINÉE 2 2 00:37:02 06:10 9.72
73 383 DAVID WEISERBS VETERAN 1 12 00:37:12 06:12 9.68
74 171 DELPHINE DE FRU AINÉE 1 8 00:37:29 06:15 9.60
75 363 ELISABETH BERTHOLET SENIOR D 9 00:37:59 06:20 9.48
76 98 SOPHIE DESSART AINÉE 1 9 00:38:07 06:21 9.44
77 7 CÉDRIC SLEGERS VETERAN 1 13 00:38:08 06:21 9.44
78 15 CINDY WALTHERY SENIOR D 10 00:38:38 06:26 9.32
79 364 GERALDINE VLAMINCK AINÉE 1 10 00:38:40 06:27 9.31
80 362 CHRISTEL MARCHAL AINÉE 1 11 00:38:41 06:27 9.31
81 283 ANNA FULLER SENIOR D 11 00:38:50 06:28 9.27
82 147 JEAN-PIERRE DUQUESNE VETERAN 3 1 00:39:46 06:38 9.05
83 63 PATRICIA CORNET AINÉE 2 3 00:40:00 06:40 9.00
84 278 ISABELLE GAROT AINÉE 2 4 00:40:06 06:41 8.98
85 152 CAROLE STACHE SENIOR D 12 00:40:24 06:44 8.91
86 4 MARION SLEGERS SENIOR D 13 00:40:54 06:49 8.80
87 134 ARNAUD DIRCKX VETERAN 1 14 00:40:57 06:49 8.79
88 319 ANGELIQUE DELCORPS AINÉE 1 12 00:41:05 06:51 8.76
89 126 CLAIRE VERLE SENIOR D 14 00:41:35 06:56 8.66
90 188 CARINE CRAVILLON AINÉE 2 5 00:41:36 06:56 8.65
91 55 MARIE SCLIPTEUX AINÉE 1 13 00:41:40 06:57 8.64
92 25 ANNE-SOPHIE FILOT ESPOIR D 4 00:41:54 06:59 8.59
93 74 LUC SCLIPTEUX VETERAN 3 2 00:41:57 07:00 8.58
94 189 JULIE DE GRADY AINÉE 1 14 00:43:13 07:12 8.33
95 307 ALBA POPOLARE SENIOR D 15 00:44:24 07:24 8.11
96 47 ISABELLE BAZZARINI AINÉE 1 15 00:45:15 07:32 7.96